Year,Month,Day,Hour,Minute,Value (Times are PST for windspeed in km/hr)
2018,01,21,00,00,10.20
2018,01,21,00,01,21.60
2018,01,21,00,02,21.30
2018,01,21,00,03,13.40
2018,01,21,00,04,17.40
2018,01,21,00,05,10.10
2018,01,21,00,06,18.00
2018,01,21,00,07,20.50
2018,01,21,00,08,15.50
2018,01,21,00,09,8.40
2018,01,21,00,10,19.30
2018,01,21,00,11,19.90
2018,01,21,00,12,15.20
2018,01,21,00,13,14.80
2018,01,21,00,14,15.20
2018,01,21,00,15,19.70
2018,01,21,00,16,14.90
2018,01,21,00,17,14.10
2018,01,21,00,18,10.40
2018,01,21,00,19,20.40
2018,01,21,00,20,15.60
2018,01,21,00,21,14.30
2018,01,21,00,22,14.90
2018,01,21,00,23,14.90
2018,01,21,00,24,17.90
2018,01,21,00,25,14.60
2018,01,21,00,26,17.10
2018,01,21,00,27,18.50
2018,01,21,00,28,15.40
2018,01,21,00,29,14.80
2018,01,21,00,30,17.90
2018,01,21,00,31,17.60
2018,01,21,00,32,14.10
2018,01,21,00,33,8.30
2018,01,21,00,34,21.00
2018,01,21,00,35,19.10
2018,01,21,00,36,20.00
2018,01,21,00,37,12.70
2018,01,21,00,38,16.70
2018,01,21,00,39,22.20
2018,01,21,00,40,23.40
2018,01,21,00,41,13.90
2018,01,21,00,42,21.60
2018,01,21,00,43,21.20
2018,01,21,00,44,17.80
2018,01,21,00,45,18.40
2018,01,21,00,46,26.10
2018,01,21,00,47,17.80
2018,01,21,00,48,14.00
2018,01,21,00,49,18.00
2018,01,21,00,50,17.10
2018,01,21,00,51,19.90
2018,01,21,00,52,22.10
2018,01,21,00,53,19.40
2018,01,21,00,54,22.10
2018,01,21,00,55,26.50
2018,01,21,00,56,27.80
2018,01,21,00,57,24.10
2018,01,21,00,58,35.00
2018,01,21,00,59,25.50
2018,01,21,01,00,23.90
2018,01,21,01,01,18.40
2018,01,21,01,02,21.40
2018,01,21,01,03,25.80
2018,01,21,01,04,29.00
2018,01,21,01,05,25.50
2018,01,21,01,06,18.50
2018,01,21,01,07,18.80
2018,01,21,01,08,19.80
2018,01,21,01,09,25.80
2018,01,21,01,10,27.50
2018,01,21,01,11,18.60
2018,01,21,01,12,16.00
2018,01,21,01,13,27.50
2018,01,21,01,14,24.10
2018,01,21,01,15,12.00
2018,01,21,01,16,19.50
2018,01,21,01,17,23.50
2018,01,21,01,18,16.40
2018,01,21,01,19,15.10
2018,01,21,01,20,18.70
2018,01,21,01,21,21.30
2018,01,21,01,22,17.80
2018,01,21,01,23,19.00
2018,01,21,01,24,18.60
2018,01,21,01,25,20.40
2018,01,21,01,26,22.80
2018,01,21,01,27,26.60
2018,01,21,01,28,22.20
2018,01,21,01,29,20.90
2018,01,21,01,30,14.00
2018,01,21,01,31,15.90
2018,01,21,01,32,22.10
2018,01,21,01,33,21.80
2018,01,21,01,34,21.40
2018,01,21,01,35,20.70
2018,01,21,01,36,29.30
2018,01,21,01,37,20.00
2018,01,21,01,38,19.70
2018,01,21,01,39,32.40
2018,01,21,01,40,27.50
2018,01,21,01,41,22.10
2018,01,21,01,42,22.20
2018,01,21,01,43,26.90
2018,01,21,01,44,24.90
2018,01,21,01,45,27.30
2018,01,21,01,46,24.30
2018,01,21,01,47,22.70
2018,01,21,01,48,22.90
2018,01,21,01,49,30.00
2018,01,21,01,50,25.90
2018,01,21,01,51,19.30
2018,01,21,01,52,16.30
2018,01,21,01,53,19.80
2018,01,21,01,54,23.40
2018,01,21,01,55,20.40
2018,01,21,01,56,25.70
2018,01,21,01,57,34.40
2018,01,21,01,58,25.90
2018,01,21,01,59,21.20
2018,01,21,02,00,21.20
2018,01,21,02,01,26.60
2018,01,21,02,02,28.20
2018,01,21,02,03,22.80
2018,01,21,02,04,22.60
2018,01,21,02,05,26.40
2018,01,21,02,06,23.90
2018,01,21,02,07,18.30
2018,01,21,02,08,14.10
2018,01,21,02,09,22.10
2018,01,21,02,10,27.00
2018,01,21,02,11,23.20
2018,01,21,02,12,23.80
2018,01,21,02,13,29.70
2018,01,21,02,14,28.90
2018,01,21,02,15,27.50
2018,01,21,02,16,20.10
2018,01,21,02,17,25.20
2018,01,21,02,18,26.00
2018,01,21,02,19,25.50
2018,01,21,02,20,19.80
2018,01,21,02,21,22.90
2018,01,21,02,22,26.70
2018,01,21,02,23,23.20
2018,01,21,02,24,21.20
2018,01,21,02,25,21.50
2018,01,21,02,26,26.60
2018,01,21,02,27,23.00
2018,01,21,02,28,27.60
2018,01,21,02,29,25.70
2018,01,21,02,30,26.50
2018,01,21,02,31,29.10
2018,01,21,02,32,26.40
2018,01,21,02,33,32.20
2018,01,21,02,34,25.10
2018,01,21,02,35,23.80
2018,01,21,02,36,25.10
2018,01,21,02,37,26.00
2018,01,21,02,38,21.50
2018,01,21,02,39,14.80
2018,01,21,02,40,23.60
2018,01,21,02,41,27.90
2018,01,21,02,42,26.40
2018,01,21,02,43,26.80
2018,01,21,02,44,22.10
2018,01,21,02,45,26.50
2018,01,21,02,46,22.90
2018,01,21,02,47,18.80
2018,01,21,02,48,26.70
2018,01,21,02,49,26.10
2018,01,21,02,50,24.30
2018,01,21,02,51,20.70
2018,01,21,02,52,21.70
2018,01,21,02,53,18.50
2018,01,21,02,54,24.30
2018,01,21,02,55,18.40
2018,01,21,02,56,19.00
2018,01,21,02,57,23.40
2018,01,21,02,58,16.60
2018,01,21,02,59,22.50
2018,01,21,03,00,23.30
2018,01,21,03,01,24.60
2018,01,21,03,02,22.90
2018,01,21,03,03,21.00
2018,01,21,03,04,16.60
2018,01,21,03,05,25.30
2018,01,21,03,06,23.50
2018,01,21,03,07,25.40
2018,01,21,03,08,20.90
2018,01,21,03,09,21.50
2018,01,21,03,10,17.50
2018,01,21,03,11,22.10
2018,01,21,03,12,22.40
2018,01,21,03,13,20.70
2018,01,21,03,14,18.10
2018,01,21,03,15,23.30
2018,01,21,03,16,25.00
2018,01,21,03,17,29.00
2018,01,21,03,18,26.70
2018,01,21,03,19,30.60
2018,01,21,03,20,22.30
2018,01,21,03,21,17.40
2018,01,21,03,22,27.30
2018,01,21,03,23,24.50
2018,01,21,03,24,25.60
2018,01,21,03,25,27.00
2018,01,21,03,26,27.10
2018,01,21,03,27,26.10
2018,01,21,03,28,23.30
2018,01,21,03,29,31.10
2018,01,21,03,30,32.00
2018,01,21,03,31,26.30
2018,01,21,03,32,23.30
2018,01,21,03,33,29.20
2018,01,21,03,34,34.00
2018,01,21,03,35,28.50
2018,01,21,03,36,24.80
2018,01,21,03,37,25.10
2018,01,21,03,38,27.90
2018,01,21,03,39,29.40
2018,01,21,03,40,30.00
2018,01,21,03,41,29.50
2018,01,21,03,42,22.90
2018,01,21,03,43,26.30
2018,01,21,03,44,26.30
2018,01,21,03,45,26.00
2018,01,21,03,46,28.40
2018,01,21,03,47,24.90
2018,01,21,03,48,30.80
2018,01,21,03,49,30.60
2018,01,21,03,50,22.40
2018,01,21,03,51,28.60
2018,01,21,03,52,29.40
2018,01,21,03,53,31.10
2018,01,21,03,54,23.60
2018,01,21,03,55,25.50
2018,01,21,03,56,28.60
2018,01,21,03,57,22.80
2018,01,21,03,58,21.80
2018,01,21,03,59,26.40
2018,01,21,04,00,27.60
2018,01,21,04,01,28.10
2018,01,21,04,02,30.00
2018,01,21,04,03,29.00
2018,01,21,04,04,31.80
2018,01,21,04,05,33.60
2018,01,21,04,06,26.20
2018,01,21,04,07,30.00
2018,01,21,04,08,23.40
2018,01,21,04,09,26.30
2018,01,21,04,10,22.90
2018,01,21,04,11,30.40
2018,01,21,04,12,27.90
2018,01,21,04,13,25.60
2018,01,21,04,14,26.00
2018,01,21,04,15,25.70
2018,01,21,04,16,32.40
2018,01,21,04,17,29.60
2018,01,21,04,18,23.40
2018,01,21,04,19,25.00
2018,01,21,04,20,27.70
2018,01,21,04,21,34.90
2018,01,21,04,22,28.40
2018,01,21,04,23,21.80
2018,01,21,04,24,29.40
2018,01,21,04,25,28.50
2018,01,21,04,26,28.00
2018,01,21,04,27,28.40
2018,01,21,04,28,21.80
2018,01,21,04,29,24.10
2018,01,21,04,30,19.80
2018,01,21,04,31,25.40
2018,01,21,04,32,28.30
2018,01,21,04,33,27.80
2018,01,21,04,34,30.20
2018,01,21,04,35,32.40
2018,01,21,04,36,20.50
2018,01,21,04,37,29.70
2018,01,21,04,38,37.90
2018,01,21,04,39,32.00
2018,01,21,04,40,23.80
2018,01,21,04,41,25.70
2018,01,21,04,42,28.50
2018,01,21,04,43,26.70
2018,01,21,04,44,32.10
2018,01,21,04,45,25.70
2018,01,21,04,46,22.80
2018,01,21,04,47,34.20
2018,01,21,04,48,27.50
2018,01,21,04,49,24.10
2018,01,21,04,50,27.10
2018,01,21,04,51,31.70
2018,01,21,04,52,30.20
2018,01,21,04,53,34.70
2018,01,21,04,54,27.00
2018,01,21,04,55,28.60
2018,01,21,04,56,16.70
2018,01,21,04,57,29.70
2018,01,21,04,58,23.50
2018,01,21,04,59,23.00
2018,01,21,05,00,19.30
2018,01,21,05,01,26.70
2018,01,21,05,02,24.80
2018,01,21,05,03,28.00
2018,01,21,05,04,23.70
2018,01,21,05,05,33.40
2018,01,21,05,06,22.60
2018,01,21,05,07,30.50
2018,01,21,05,08,23.80
2018,01,21,05,09,27.40
2018,01,21,05,10,28.70
2018,01,21,05,11,30.20
2018,01,21,05,12,29.30
2018,01,21,05,13,27.00
2018,01,21,05,14,26.40
2018,01,21,05,15,28.80
2018,01,21,05,16,27.20
2018,01,21,05,17,31.50
2018,01,21,05,18,31.40
2018,01,21,05,19,23.50
2018,01,21,05,20,24.40
2018,01,21,05,21,28.20
2018,01,21,05,22,24.70
2018,01,21,05,23,21.10
2018,01,21,05,24,22.50
2018,01,21,05,25,22.90
2018,01,21,05,26,24.50
2018,01,21,05,27,24.60
2018,01,21,05,28,21.10
2018,01,21,05,29,24.40
2018,01,21,05,30,23.40
2018,01,21,05,31,28.90
2018,01,21,05,32,30.60
2018,01,21,05,33,28.20
2018,01,21,05,34,21.50
2018,01,21,05,35,26.20
2018,01,21,05,36,25.20
2018,01,21,05,37,22.30
2018,01,21,05,38,22.60
2018,01,21,05,39,25.10
2018,01,21,05,40,26.00
2018,01,21,05,41,19.70
2018,01,21,05,42,27.90
2018,01,21,05,43,28.90
2018,01,21,05,44,27.20
2018,01,21,05,45,30.70
2018,01,21,05,46,27.50
2018,01,21,05,47,23.60
2018,01,21,05,48,22.10
2018,01,21,05,49,26.60
2018,01,21,05,50,25.00
2018,01,21,05,51,28.90
2018,01,21,05,52,27.20
2018,01,21,05,53,26.20
2018,01,21,05,54,23.00
2018,01,21,05,55,21.00
2018,01,21,05,56,26.60
2018,01,21,05,57,28.40
2018,01,21,05,58,32.00
2018,01,21,05,59,27.10
2018,01,21,06,00,22.60
2018,01,21,06,01,31.00
2018,01,21,06,02,28.70
2018,01,21,06,03,24.60
2018,01,21,06,04,22.00
2018,01,21,06,05,27.20
2018,01,21,06,06,22.90
2018,01,21,06,07,21.90
2018,01,21,06,08,29.20
2018,01,21,06,09,22.90
2018,01,21,06,10,28.70
2018,01,21,06,11,20.50
2018,01,21,06,12,24.60
2018,01,21,06,13,30.80
2018,01,21,06,14,21.30
2018,01,21,06,15,26.50
2018,01,21,06,16,26.40
2018,01,21,06,17,27.40
2018,01,21,06,18,25.80
2018,01,21,06,19,22.20
2018,01,21,06,20,25.40
2018,01,21,06,21,17.30
2018,01,21,06,22,28.20
2018,01,21,06,23,30.60
2018,01,21,06,24,25.90
2018,01,21,06,25,21.60
2018,01,21,06,26,21.30
2018,01,21,06,27,27.10
2018,01,21,06,28,31.30
2018,01,21,06,29,34.40
2018,01,21,06,30,28.50
2018,01,21,06,31,23.80
2018,01,21,06,32,19.30
2018,01,21,06,33,18.50
2018,01,21,06,34,23.20
2018,01,21,06,35,23.90
2018,01,21,06,36,24.30
2018,01,21,06,37,21.50
2018,01,21,06,38,17.10
2018,01,21,06,39,21.50
2018,01,21,06,40,20.00
2018,01,21,06,41,27.90
2018,01,21,06,42,25.00
2018,01,21,06,43,19.40
2018,01,21,06,44,21.60
2018,01,21,06,45,24.20
2018,01,21,06,46,25.90
2018,01,21,06,47,22.50
2018,01,21,06,48,21.00
2018,01,21,06,49,23.70
2018,01,21,06,50,21.00
2018,01,21,06,51,19.10
2018,01,21,06,52,14.00
2018,01,21,06,53,23.20
2018,01,21,06,54,22.60
2018,01,21,06,55,21.40
2018,01,21,06,56,22.60
2018,01,21,06,57,25.60
2018,01,21,06,58,21.60
2018,01,21,06,59,15.80
2018,01,21,07,00,16.80
2018,01,21,07,01,17.30
2018,01,21,07,02,10.20
2018,01,21,07,03,16.80
2018,01,21,07,04,22.40
2018,01,21,07,05,20.10
2018,01,21,07,06,17.80
2018,01,21,07,07,21.60
2018,01,21,07,08,20.30
2018,01,21,07,09,17.10
2018,01,21,07,10,11.70
2018,01,21,07,11,22.00
2018,01,21,07,12,21.60
2018,01,21,07,13,14.50
2018,01,21,07,14,24.10
2018,01,21,07,15,21.00
2018,01,21,07,16,17.20
2018,01,21,07,17,18.50
2018,01,21,07,18,25.60
2018,01,21,07,19,18.90
2018,01,21,07,20,21.20
2018,01,21,07,21,16.20
2018,01,21,07,22,18.90
2018,01,21,07,23,17.30
2018,01,21,07,24,18.10
2018,01,21,07,25,21.90
2018,01,21,07,26,19.00
2018,01,21,07,27,7.60
2018,01,21,07,28,15.30
2018,01,21,07,29,17.10
2018,01,21,07,30,19.00
2018,01,21,07,31,18.20
2018,01,21,07,32,21.00
2018,01,21,07,33,17.80
2018,01,21,07,34,15.60
2018,01,21,07,35,23.40
2018,01,21,07,36,26.80
2018,01,21,07,37,19.80
2018,01,21,07,38,21.40
2018,01,21,07,39,20.50
2018,01,21,07,40,21.80
2018,01,21,07,41,19.10
2018,01,21,07,42,19.90
2018,01,21,07,43,20.60
2018,01,21,07,44,16.70
2018,01,21,07,45,15.00
2018,01,21,07,46,21.10
2018,01,21,07,47,18.60
2018,01,21,07,48,18.70
2018,01,21,07,49,18.40
2018,01,21,07,50,18.70
2018,01,21,07,51,22.40
2018,01,21,07,52,15.00
2018,01,21,07,53,19.20
2018,01,21,07,54,17.00
2018,01,21,07,55,20.50
2018,01,21,07,56,20.30
2018,01,21,07,57,21.50
2018,01,21,07,58,22.50
2018,01,21,07,59,16.50
2018,01,21,08,00,16.30
2018,01,21,08,01,20.60
2018,01,21,08,02,21.50
2018,01,21,08,03,18.40
2018,01,21,08,04,19.80
2018,01,21,08,05,24.50
2018,01,21,08,06,15.50
2018,01,21,08,07,15.80
2018,01,21,08,08,21.70
2018,01,21,08,09,23.90
2018,01,21,08,10,12.10
2018,01,21,08,11,19.30
2018,01,21,08,12,20.60
2018,01,21,08,13,14.70
2018,01,21,08,14,20.40
2018,01,21,08,15,13.20
2018,01,21,08,16,17.90
2018,01,21,08,17,10.50
2018,01,21,08,18,12.20
2018,01,21,08,19,17.20
2018,01,21,08,20,15.40
2018,01,21,08,21,12.10
2018,01,21,08,22,14.80
2018,01,21,08,23,9.60
2018,01,21,08,24,10.70
2018,01,21,08,25,15.50
2018,01,21,08,26,13.30
2018,01,21,08,27,10.40
2018,01,21,08,28,10.70
2018,01,21,08,29,16.20
2018,01,21,08,30,10.70
2018,01,21,08,31,7.70
2018,01,21,08,32,10.30
2018,01,21,08,33,5.00
2018,01,21,08,34,14.20
2018,01,21,08,35,9.90
2018,01,21,08,36,8.70
2018,01,21,08,37,10.90
2018,01,21,08,38,11.60
2018,01,21,08,39,10.30
2018,01,21,08,40,7.20
2018,01,21,08,41,7.60
2018,01,21,08,42,8.80
2018,01,21,08,43,3.20
2018,01,21,08,44,0.00
2018,01,21,08,45,0.00
2018,01,21,08,46,0.00
2018,01,21,08,47,0.00
2018,01,21,08,48,0.00
2018,01,21,08,49,0.00
2018,01,21,08,50,0.00
2018,01,21,08,51,0.00
2018,01,21,08,52,0.00
2018,01,21,08,53,0.00
2018,01,21,08,54,0.00
2018,01,21,08,55,0.00
2018,01,21,08,56,0.00
2018,01,21,08,57,0.00
2018,01,21,08,58,0.00
2018,01,21,08,59,0.00
2018,01,21,09,00,0.00
2018,01,21,09,01,0.00
2018,01,21,09,02,2.70
2018,01,21,09,03,13.30
2018,01,21,09,04,12.90
2018,01,21,09,05,14.20
2018,01,21,09,06,7.90
2018,01,21,09,07,9.90
2018,01,21,09,08,6.80
2018,01,21,09,09,10.30
2018,01,21,09,10,2.60
2018,01,21,09,11,6.20
2018,01,21,09,12,16.30
2018,01,21,09,13,13.60
2018,01,21,09,14,9.20
2018,01,21,09,15,12.20
2018,01,21,09,16,10.90
2018,01,21,09,17,8.30
2018,01,21,09,18,14.40
2018,01,21,09,19,8.40
2018,01,21,09,20,11.70
2018,01,21,09,21,11.30
2018,01,21,09,22,9.40
2018,01,21,09,23,9.90
2018,01,21,09,24,11.50
2018,01,21,09,25,12.70
2018,01,21,09,26,13.60
2018,01,21,09,27,12.30
2018,01,21,09,28,11.40
2018,01,21,09,29,14.80
2018,01,21,09,30,12.40
2018,01,21,09,31,10.40
2018,01,21,09,32,10.50
2018,01,21,09,33,12.80
2018,01,21,09,34,7.80
2018,01,21,09,35,10.20
2018,01,21,09,36,7.30
2018,01,21,09,37,7.00
2018,01,21,09,38,7.90
2018,01,21,09,39,6.70
2018,01,21,09,40,8.10
2018,01,21,09,41,9.20
2018,01,21,09,42,11.30
2018,01,21,09,43,9.80
2018,01,21,09,44,3.80
2018,01,21,09,45,4.30
2018,01,21,09,46,0.00
2018,01,21,09,47,0.00
2018,01,21,09,48,0.00
2018,01,21,09,49,0.00
2018,01,21,09,50,0.00
2018,01,21,09,51,0.00
2018,01,21,09,52,0.70
2018,01,21,09,53,1.20
2018,01,21,09,54,2.00
2018,01,21,09,55,0.00
2018,01,21,09,56,0.00
2018,01,21,09,57,0.00
2018,01,21,09,58,0.00
2018,01,21,09,59,0.00
2018,01,21,10,00,0.00
2018,01,21,10,01,0.00
2018,01,21,10,02,0.00
2018,01,21,10,03,0.00
2018,01,21,10,04,0.00
2018,01,21,10,05,0.00
2018,01,21,10,06,0.00
2018,01,21,10,07,0.00
2018,01,21,10,08,0.00
2018,01,21,10,09,2.50
2018,01,21,10,10,0.00
2018,01,21,10,11,6.10
2018,01,21,10,12,12.70
2018,01,21,10,13,1.70
2018,01,21,10,14,15.50
2018,01,21,10,15,10.40
2018,01,21,10,16,13.20
2018,01,21,10,17,5.70
2018,01,21,10,18,8.80
2018,01,21,10,19,8.90
2018,01,21,10,20,4.80
2018,01,21,10,21,0.00
2018,01,21,10,22,7.80
2018,01,21,10,23,14.20
2018,01,21,10,24,15.20
2018,01,21,10,25,8.20
2018,01,21,10,26,10.60
2018,01,21,10,27,11.60
2018,01,21,10,28,15.70
2018,01,21,10,29,8.70
2018,01,21,10,30,6.50
2018,01,21,10,31,0.00
2018,01,21,10,32,3.40
2018,01,21,10,33,0.00
2018,01,21,10,34,0.00
2018,01,21,10,35,0.00
2018,01,21,10,36,0.00
2018,01,21,10,37,1.70
2018,01,21,10,38,18.40
2018,01,21,10,39,19.00
2018,01,21,10,40,16.30
2018,01,21,10,41,12.20
2018,01,21,10,42,0.50
2018,01,21,10,43,0.00
2018,01,21,10,44,0.00
2018,01,21,10,45,0.00
2018,01,21,10,46,0.00
2018,01,21,10,47,0.00
2018,01,21,10,48,0.00
2018,01,21,10,49,0.10
2018,01,21,10,50,6.00
2018,01,21,10,51,0.00
2018,01,21,10,52,0.00
2018,01,21,10,53,0.00
2018,01,21,10,54,0.00
2018,01,21,10,55,0.00
2018,01,21,10,56,0.00
2018,01,21,10,57,0.00
2018,01,21,10,58,0.00
2018,01,21,10,59,0.00
2018,01,21,11,00,0.00
2018,01,21,11,01,0.00
2018,01,21,11,02,3.40
2018,01,21,11,03,0.00
2018,01,21,11,04,0.00
2018,01,21,11,05,0.00
2018,01,21,11,06,0.00
2018,01,21,11,07,0.00
2018,01,21,11,08,0.00
2018,01,21,11,09,0.00
2018,01,21,11,10,0.00
2018,01,21,11,11,0.00
2018,01,21,11,12,0.00
2018,01,21,11,13,0.00
2018,01,21,11,14,0.00
2018,01,21,11,15,0.00
2018,01,21,11,16,0.00
2018,01,21,11,17,0.00
2018,01,21,11,18,0.00
2018,01,21,11,19,0.00
2018,01,21,11,20,0.00
2018,01,21,11,21,0.00
2018,01,21,11,22,0.00
2018,01,21,11,23,0.00
2018,01,21,11,24,0.00
2018,01,21,11,25,0.00
2018,01,21,11,26,0.00
2018,01,21,11,27,0.00
2018,01,21,11,28,0.00
2018,01,21,11,29,0.00
2018,01,21,11,30,0.00
2018,01,21,11,31,0.00
2018,01,21,11,32,0.00
2018,01,21,11,33,0.00
2018,01,21,11,34,0.00
2018,01,21,11,35,0.00
2018,01,21,11,36,0.00
2018,01,21,11,37,0.00
2018,01,21,11,38,0.00
2018,01,21,11,39,0.00
2018,01,21,11,40,0.00
2018,01,21,11,41,0.00
2018,01,21,11,42,0.00
2018,01,21,11,43,0.00
2018,01,21,11,44,0.00
2018,01,21,11,45,0.00
2018,01,21,11,46,0.00
2018,01,21,11,47,0.10
2018,01,21,11,48,0.00
2018,01,21,11,49,0.00
2018,01,21,11,50,0.00
2018,01,21,11,51,0.00
2018,01,21,11,52,0.00
2018,01,21,11,53,0.00
2018,01,21,11,54,0.00
2018,01,21,11,55,0.00
2018,01,21,11,56,0.00
2018,01,21,11,57,0.00
2018,01,21,11,58,0.00
2018,01,21,11,59,0.00
2018,01,21,12,00,0.00
2018,01,21,12,01,0.00
2018,01,21,12,02,0.00
2018,01,21,12,03,0.00
2018,01,21,12,04,0.00
2018,01,21,12,05,0.00
2018,01,21,12,06,0.00
2018,01,21,12,07,0.00
2018,01,21,12,08,0.00
2018,01,21,12,09,0.00
2018,01,21,12,10,0.00
2018,01,21,12,11,0.00
2018,01,21,12,12,6.30
2018,01,21,12,13,19.60
2018,01,21,12,14,13.90
2018,01,21,12,15,0.30
2018,01,21,12,16,0.10
2018,01,21,12,17,0.20
2018,01,21,12,18,0.70
2018,01,21,12,19,0.80
2018,01,21,12,20,0.00
2018,01,21,12,21,0.00
2018,01,21,12,22,0.00
2018,01,21,12,23,0.00
2018,01,21,12,24,0.00
2018,01,21,12,25,0.00
2018,01,21,12,26,0.00
2018,01,21,12,27,0.00
2018,01,21,12,28,0.00
2018,01,21,12,29,0.00
2018,01,21,12,30,0.00
2018,01,21,12,31,0.00
2018,01,21,12,32,0.00
2018,01,21,12,33,0.00
2018,01,21,12,34,0.00
2018,01,21,12,35,0.00
2018,01,21,12,36,0.00
2018,01,21,12,37,0.00
2018,01,21,12,38,0.00
2018,01,21,12,39,0.00
2018,01,21,12,40,0.00
2018,01,21,12,41,0.00
2018,01,21,12,42,0.00
2018,01,21,12,43,0.00
2018,01,21,12,44,0.00
2018,01,21,12,45,0.00
2018,01,21,12,46,0.00
2018,01,21,12,47,0.00
2018,01,21,12,48,0.00
2018,01,21,12,49,0.00
2018,01,21,12,50,0.00
2018,01,21,12,51,0.00
2018,01,21,12,52,0.00
2018,01,21,12,53,0.00
2018,01,21,12,54,0.00
2018,01,21,12,55,0.00
2018,01,21,12,56,0.00
2018,01,21,12,57,0.00
2018,01,21,12,58,0.00
2018,01,21,12,59,0.00
2018,01,21,13,00,0.00
2018,01,21,13,01,0.00
2018,01,21,13,02,0.00
2018,01,21,13,03,0.00
2018,01,21,13,04,0.00
2018,01,21,13,05,0.00
2018,01,21,13,06,0.00
2018,01,21,13,07,0.00
2018,01,21,13,08,0.00
2018,01,21,13,09,0.00
2018,01,21,13,10,0.00
2018,01,21,13,11,0.00
2018,01,21,13,12,0.00
2018,01,21,13,13,0.00
2018,01,21,13,14,0.00
2018,01,21,13,15,0.00
2018,01,21,13,16,0.00
2018,01,21,13,17,0.00
2018,01,21,13,18,0.00
2018,01,21,13,19,0.00
2018,01,21,13,20,0.00
2018,01,21,13,21,0.00
2018,01,21,13,22,0.00
2018,01,21,13,23,0.00
2018,01,21,13,24,0.00
2018,01,21,13,25,0.00
2018,01,21,13,26,0.00
2018,01,21,13,27,0.00
2018,01,21,13,28,0.00
2018,01,21,13,29,0.00
2018,01,21,13,30,0.00
2018,01,21,13,31,0.00
2018,01,21,13,32,0.00
2018,01,21,13,33,0.00
2018,01,21,13,34,0.10
2018,01,21,13,35,0.00
2018,01,21,13,36,0.00
2018,01,21,13,37,0.00
2018,01,21,13,38,0.00
2018,01,21,13,39,0.00
2018,01,21,13,40,0.00
2018,01,21,13,41,1.30
2018,01,21,13,42,5.10
2018,01,21,13,43,5.30
2018,01,21,13,44,1.60
2018,01,21,13,45,2.90
2018,01,21,13,46,2.10
2018,01,21,13,47,2.50
2018,01,21,13,48,0.10
2018,01,21,13,49,4.10
2018,01,21,13,50,12.90
2018,01,21,13,51,0.90
2018,01,21,13,52,5.20
2018,01,21,13,53,5.40
2018,01,21,13,54,17.30
2018,01,21,13,55,13.30
2018,01,21,13,56,10.30
2018,01,21,13,57,5.10
2018,01,21,13,58,10.80
2018,01,21,13,59,3.60
2018,01,21,14,00,3.30
2018,01,21,14,01,0.00
2018,01,21,14,02,0.00
2018,01,21,14,03,0.00
2018,01,21,14,04,0.00
2018,01,21,14,05,0.00
2018,01,21,14,06,0.00
2018,01,21,14,07,0.00
2018,01,21,14,08,0.00
2018,01,21,14,09,0.00
2018,01,21,14,10,0.00
2018,01,21,14,11,0.70
2018,01,21,14,12,1.70
2018,01,21,14,13,0.00
2018,01,21,14,14,0.00
2018,01,21,14,15,0.00
2018,01,21,14,16,0.00
2018,01,21,14,17,0.00
2018,01,21,14,18,0.00
2018,01,21,14,19,0.00
2018,01,21,14,20,0.00
2018,01,21,14,21,0.00
2018,01,21,14,22,0.00
2018,01,21,14,23,0.00
2018,01,21,14,24,0.00
2018,01,21,14,25,0.00
2018,01,21,14,26,0.00
2018,01,21,14,27,0.00
2018,01,21,14,28,0.00
2018,01,21,14,29,0.00
2018,01,21,14,30,0.00
2018,01,21,14,31,0.00
2018,01,21,14,32,0.00
2018,01,21,14,33,0.00
2018,01,21,14,34,0.00
2018,01,21,14,35,0.00
2018,01,21,14,36,0.00
2018,01,21,14,37,0.00
2018,01,21,14,38,0.00
2018,01,21,14,39,0.00
2018,01,21,14,40,0.00
2018,01,21,14,41,0.00
2018,01,21,14,42,0.00
2018,01,21,14,43,0.00
2018,01,21,14,44,0.00
2018,01,21,14,45,0.00
2018,01,21,14,46,0.00
2018,01,21,14,47,0.00
2018,01,21,14,48,0.00
2018,01,21,14,49,0.00
2018,01,21,14,50,0.00
2018,01,21,14,51,0.00
2018,01,21,14,52,0.00
2018,01,21,14,53,0.00
2018,01,21,14,54,0.00
2018,01,21,14,55,0.00
2018,01,21,14,56,0.00
2018,01,21,14,57,0.00
2018,01,21,14,58,0.00
2018,01,21,14,59,0.00
2018,01,21,15,00,0.00
2018,01,21,15,01,0.00
2018,01,21,15,02,0.00
2018,01,21,15,03,0.00
2018,01,21,15,04,0.00
2018,01,21,15,05,0.00
2018,01,21,15,06,0.00
2018,01,21,15,07,0.00
2018,01,21,15,08,0.00
2018,01,21,15,09,0.00
2018,01,21,15,10,0.00
2018,01,21,15,11,0.00
2018,01,21,15,12,0.00
2018,01,21,15,13,0.00
2018,01,21,15,14,0.00
2018,01,21,15,15,0.00
2018,01,21,15,16,0.00
2018,01,21,15,17,0.00
2018,01,21,15,18,0.00
2018,01,21,15,19,0.00
2018,01,21,15,20,0.00
2018,01,21,15,21,0.00
2018,01,21,15,22,0.00
2018,01,21,15,23,0.00
2018,01,21,15,24,0.00
2018,01,21,15,25,0.00
2018,01,21,15,26,0.00
2018,01,21,15,27,0.00
2018,01,21,15,28,0.00
2018,01,21,15,29,0.00
2018,01,21,15,30,0.00
2018,01,21,15,31,0.00
2018,01,21,15,32,0.00
2018,01,21,15,33,0.00
2018,01,21,15,34,0.00
2018,01,21,15,35,0.00
2018,01,21,15,36,0.00
2018,01,21,15,37,0.00
2018,01,21,15,38,0.00
2018,01,21,15,39,0.00
2018,01,21,15,40,0.00
2018,01,21,15,41,0.00
2018,01,21,15,42,0.00
2018,01,21,15,43,0.00
2018,01,21,15,44,0.00
2018,01,21,15,45,0.00
2018,01,21,15,46,0.00
2018,01,21,15,47,0.00
2018,01,21,15,48,0.00
2018,01,21,15,49,0.00
2018,01,21,15,50,0.00
2018,01,21,15,51,0.00
2018,01,21,15,52,0.00
2018,01,21,15,53,0.00
2018,01,21,15,54,0.00
2018,01,21,15,55,0.00
2018,01,21,15,56,0.00
2018,01,21,15,57,0.00
2018,01,21,15,58,0.00
2018,01,21,15,59,0.00
2018,01,21,16,00,0.00
2018,01,21,16,01,0.10
2018,01,21,16,02,0.00
2018,01,21,16,03,0.00
2018,01,21,16,04,0.00
2018,01,21,16,05,0.00
2018,01,21,16,06,0.00
2018,01,21,16,07,0.00
2018,01,21,16,08,0.00
2018,01,21,16,09,0.00
2018,01,21,16,10,0.00
2018,01,21,16,11,0.00
2018,01,21,16,12,0.00
2018,01,21,16,13,0.00
2018,01,21,16,14,0.00
2018,01,21,16,15,0.00
2018,01,21,16,16,0.00
2018,01,21,16,17,0.00
2018,01,21,16,18,0.00
2018,01,21,16,19,0.00
2018,01,21,16,20,0.00
2018,01,21,16,21,0.00
2018,01,21,16,22,0.00
2018,01,21,16,23,0.00
2018,01,21,16,24,0.00
2018,01,21,16,25,0.00
2018,01,21,16,26,0.00
2018,01,21,16,27,0.00
2018,01,21,16,28,0.00
2018,01,21,16,29,0.00
2018,01,21,16,30,0.00
2018,01,21,16,31,0.00
2018,01,21,16,32,0.00
2018,01,21,16,33,0.00
2018,01,21,16,34,0.00
2018,01,21,16,35,0.00
2018,01,21,16,36,0.00
2018,01,21,16,37,0.00
2018,01,21,16,38,0.00
2018,01,21,16,39,0.00
2018,01,21,16,40,0.00
2018,01,21,16,41,0.00
2018,01,21,16,42,0.00
2018,01,21,16,43,0.00
2018,01,21,16,44,0.00
2018,01,21,16,45,0.00
2018,01,21,16,46,0.00
2018,01,21,16,47,0.00
2018,01,21,16,48,0.00
2018,01,21,16,49,0.00
2018,01,21,16,50,0.00
2018,01,21,16,51,0.00
2018,01,21,16,52,0.00
2018,01,21,16,53,0.00
2018,01,21,16,54,0.00
2018,01,21,16,55,0.00
2018,01,21,16,56,0.00
2018,01,21,16,57,0.00
2018,01,21,16,58,0.00
2018,01,21,16,59,0.00
2018,01,21,17,00,0.00
2018,01,21,17,01,0.00
2018,01,21,17,02,0.00
2018,01,21,17,03,0.00
2018,01,21,17,04,0.00
2018,01,21,17,05,0.00
2018,01,21,17,06,0.00
2018,01,21,17,07,0.00
2018,01,21,17,08,0.00
2018,01,21,17,09,0.00
2018,01,21,17,10,0.00
2018,01,21,17,11,0.00
2018,01,21,17,12,0.00
2018,01,21,17,13,0.00
2018,01,21,17,14,0.00
2018,01,21,17,15,0.00
2018,01,21,17,16,0.00
2018,01,21,17,17,0.00
2018,01,21,17,18,0.00
2018,01,21,17,19,0.00
2018,01,21,17,20,0.00
2018,01,21,17,21,0.00
2018,01,21,17,22,0.00
2018,01,21,17,23,0.00
2018,01,21,17,24,0.00
2018,01,21,17,25,0.00
2018,01,21,17,26,0.00
2018,01,21,17,27,0.00
2018,01,21,17,28,0.00
2018,01,21,17,29,0.00
2018,01,21,17,30,0.00
2018,01,21,17,31,0.00
2018,01,21,17,32,0.00
2018,01,21,17,33,0.00
2018,01,21,17,34,0.00
2018,01,21,17,35,0.00
2018,01,21,17,36,0.00
2018,01,21,17,37,0.00
2018,01,21,17,38,0.00
2018,01,21,17,39,0.00
2018,01,21,17,40,0.00
2018,01,21,17,41,0.00